Easy to use

vPilot, FSInn, and Squawkbox

VATSIM has 3 different client software available to choose by the user. The 3 different softwares are relatively easy to use and enjoyable to the user's experience. The software's operating manual is available to download in case user has not been able to fully operate the software to get a real working pilot experience.

Radar that functions similarly to real ATC's radar

EuroScope & VRC

VATSIM uses an advanced radar client simulating real ATC experience in the real world. Although it said to be advanced, both radar clients are very easy to use. Another interesting point is VATSIM has the technology to break the limit between simulation and real life experience.

With VATSIM, you can learn more about aviation.
You can also discuss with other aviation geek.

Unforgettable Experience

Current Activity

No controllers currently online!

Pilot

Callsign Name Route
CES010Craft Shen ZSSS (914988)ZSAM-WADD
CES5030huang jialiang ZSSS (1215005)WADD-ZSPD
GIA9744Excell Lukito (1427937)WADD-WSSS
JSA249Lachlan John Gainey YMML (1337013)WSSS-WARR
SIA602Krishna Ananda Ekaputera WIII (1433164)WADD-WSSS
SIA961Justin Tan WSSS (1387897)WIII-WSSS
TGW285Rizky Bramantyo WIII (1436941)WADD-WSSS

*This information may not be up to date.

METAR

Airport Name - Location (ICAO) METAR
Sultan Hasanuddin - Makassar (WAAA)METAR WAAA 260930Z 30005KT 9999 SCT019 30/25 Q1008|NOSIG=
I Gusti Ngurah Rai - Denpasar (WADD)METAR WADD 260930Z 12012KT 9999 SCT016 28/25 Q1010|NOSIG=
Ahmad Yani - Semarang (WAHS)METAR WAHS 260930Z 07006KT 7000 FEW014 33/20 Q1008|NOSIG=
Juanda - Surabaya (WARR)METAR WARR 260930Z 10008KT 9999 FEW020CB 31/22 Q1008|NOSIG=
Soekarno Hatta - Jakarta (WIII)METAR WIII 260930Z 05007KT 9000 FEW020 32/22 Q1007|NOSIG=
Halim Perdana Kusuma - Jakarta (WIHH)METAR WIHH 260930Z 04010KT 6000 FEW022 32/22 Q1007|NOSIG=
Kualanamu International Airport - Deli Serdang (WIMM)METAR WIMM 260930Z 03012KT 9999 SCT017 30/25 Q1005|NOSIG=

*METAR resource from BMKG. This information may not be up to date.

VATSIM Indonesia vACC VATSIM South East Asia VATSIM Asia